2024/01/27 00:00:00,56.8, 0.8
2024/01/27 00:10:00,56.8, 0.9
2024/01/27 00:20:00,56.7, 0.9
2024/01/27 00:30:00,56.7, 0.8
2024/01/27 00:40:00,56.6, 0.7
2024/01/27 00:50:00,56.5, 0.8
2024/01/27 01:00:00,56.5, 0.8
2024/01/27 01:10:00,56.5, 1.0
2024/01/27 01:20:00,56.5, 0.6
2024/01/27 01:30:00,56.4, 0.6
2024/01/27 01:40:00,56.4, 0.8
2024/01/27 01:50:00,56.4, 0.8
2024/01/27 02:00:00,56.4, 0.9
2024/01/27 02:10:00,56.3, 0.8
2024/01/27 02:20:00,56.2, 0.8
2024/01/27 02:30:00,56.2, 1.0
2024/01/27 02:40:00,56.2, 0.7
2024/01/27 02:50:00,56.2, 0.6
2024/01/27 03:00:00,56.0, 0.8
2024/01/27 03:10:00,55.9, 0.8
2024/01/27 03:20:00,55.9, 0.9
2024/01/27 03:30:00,55.9, 0.9
2024/01/27 03:40:00,55.8, 0.8
2024/01/27 03:50:00,55.8, 0.7
2024/01/27 04:00:00,55.7, 0.9
2024/01/27 04:10:00,55.7, 0.8
2024/01/27 04:20:00,55.6, 0.7
2024/01/27 04:30:00,55.6, 0.8
2024/01/27 04:40:00,55.6, 0.6
2024/01/27 04:50:00,55.5, 0.9
2024/01/27 05:00:00,55.5, 0.7
2024/01/27 05:10:00,55.5, 0.6
2024/01/27 05:20:00,55.4, 0.6
2024/01/27 05:30:00,55.4, 0.7
2024/01/27 05:40:00,55.3, 0.6
2024/01/27 05:50:00,55.3, 0.7
2024/01/27 06:00:00,55.2, 0.7
2024/01/27 06:10:00,55.2, 0.7
2024/01/27 06:20:00,55.2, 0.9
2024/01/27 06:30:00,55.1, 0.9
2024/01/27 06:40:00,55.1, 0.7
2024/01/27 06:50:00,55.0, 0.8
2024/01/27 07:00:00,55.0, 0.7
2024/01/27 07:10:00,55.0, 0.8
2024/01/27 07:20:00,54.9, 0.8
2024/01/27 07:30:00,54.9, 0.7
2024/01/27 07:40:00,55.0, 0.8
2024/01/27 07:50:00,55.0, 0.8
2024/01/27 08:00:00,55.1, 1.1
2024/01/27 08:10:00,55.1, 1.1
2024/01/27 08:20:00,55.1, 1.4
2024/01/27 08:30:00,55.0, 1.5
2024/01/27 08:40:00,55.0, 1.6
2024/01/27 08:50:00,54.9, 2.1
2024/01/27 09:00:00,54.8, 2.0
2024/01/27 09:10:00,54.7, 2.4
2024/01/27 09:20:00,54.6, 2.8
2024/01/27 09:30:00,54.5, 3.0
2024/01/27 09:40:00,54.4, 3.6
2024/01/27 09:50:00,54.3, 3.4
2024/01/27 10:00:00,54.2, 4.0
2024/01/27 10:10:00,54.2, 3.8
2024/01/27 10:20:00,54.1, 4.1
2024/01/27 10:30:00,54.0, 4.6
2024/01/27 10:40:00,54.0, 4.5
2024/01/27 10:50:00,53.9, 5.3
2024/01/27 11:00:00,53.9, 5.3
2024/01/27 11:10:00,53.8, 3.9
2024/01/27 11:20:00,53.7, 3.6
2024/01/27 11:30:00,53.7, 2.8
2024/01/27 11:40:00,53.6, 3.2
2024/01/27 11:50:00,53.6, 3.3
2024/01/27 12:00:00,53.5, 3.9
2024/01/27 12:10:00,53.4, 4.3
2024/01/27 12:20:00,53.2, 5.0
2024/01/27 12:30:00,53.1, 5.6
2024/01/27 12:40:00,52.9, 4.9
2024/01/27 12:50:00,52.8, 4.9
2024/01/27 13:00:00,52.7, 5.9
2024/01/27 13:10:00,52.6, 7.4
2024/01/27 13:20:00,52.6,11.5
2024/01/27 13:30:00,52.4,12.3
2024/01/27 13:40:00,51.5, 9.5
2024/01/27 13:50:00,51.2,10.7
2024/01/27 14:00:00,51.0, 9.2
2024/01/27 14:10:00,50.9, 7.4
2024/01/27 14:20:00,50.8, 6.2
2024/01/27 14:30:00,50.6, 6.4
2024/01/27 14:40:00,50.4, 5.6
2024/01/27 14:50:00,50.3, 4.4
2024/01/27 15:00:00,50.2, 4.4
2024/01/27 15:10:00,50.1, 3.8
2024/01/27 15:20:00,50.0, 3.5
2024/01/27 15:30:00,50.0, 3.4
2024/01/27 15:40:00,50.0, 3.6
2024/01/27 15:50:00,49.9, 3.7
2024/01/27 16:00:00,49.8, 3.4
2024/01/27 16:10:00,49.8, 3.4
2024/01/27 16:20:00,49.7, 2.8
2024/01/27 16:30:00,49.6, 2.8
2024/01/27 16:40:00,49.4, 2.7
2024/01/27 16:50:00,49.4, 2.5
2024/01/27 17:00:00,49.3, 2.4
2024/01/27 17:10:00,49.2, 2.4
2024/01/27 17:20:00,49.2, 2.3
2024/01/27 17:30:00,49.1, 2.0
2024/01/27 17:40:00,49.1, 1.5
2024/01/27 17:50:00,49.1, 1.3
2024/01/27 18:00:00,49.0, 1.2
2024/01/27 18:10:00,48.9, 1.0
2024/01/27 18:20:00,48.8, 0.9
2024/01/27 18:30:00,48.7, 0.7
2024/01/27 18:40:00,48.7, 1.0
2024/01/27 18:50:00,48.6, 1.4
2024/01/27 19:00:00,48.5, 0.7
2024/01/27 19:10:00,48.4, 0.8
2024/01/27 19:20:00,48.3, 0.9
2024/01/27 19:30:00,48.3, 0.7
2024/01/27 19:40:00,48.2, 0.7
2024/01/27 19:50:00,48.2, 1.0
2024/01/27 20:00:00,48.2, 1.0
2024/01/27 20:10:00,48.1, 1.1
2024/01/27 20:20:00,48.0, 1.1
2024/01/27 20:30:00,48.0, 1.0
2024/01/27 20:40:00,48.0, 1.0
2024/01/27 20:50:00,48.0, 1.2
2024/01/27 21:00:00,47.9, 1.3
2024/01/27 21:10:00,47.9, 1.1
2024/01/27 21:20:00,47.9, 1.3
2024/01/27 21:30:00,47.8, 1.3
2024/01/27 21:40:00,47.8, 1.0
2024/01/27 21:50:00,47.8, 1.4
2024/01/27 22:00:00,47.7, 1.4
2024/01/27 22:10:00,47.7, 1.4
2024/01/27 22:20:00,47.7, 1.4
2024/01/27 22:30:00,47.6, 1.4
2024/01/27 22:40:00,47.6, 1.4
2024/01/27 22:50:00,47.6, 1.5
2024/01/27 23:00:00,47.5, 1.4
2024/01/27 23:10:00,47.5, 1.6
2024/01/27 23:20:00,47.4, 1.3
2024/01/27 23:30:00,47.5, 1.4
2024/01/27 23:40:00,47.4, 1.4
2024/01/27 23:50:00,47.3, 1.2
